This is the latest recevied weather packets stored in our database for station/object NG7N. If no packets are shown the sender has not sent any weather packets the latest 10 day(s).
| Time | Temp. | Humidity | Pressure | Rain* | Wind** | Luminosity | Snow |
|---|---|---|---|---|---|---|---|
| 1777691363 | 16.11° C | 60% | 1015.1 hPa | 0 mm | - | - | - |
| 1777690764 | 16.11° C | 61% | 1015 hPa | 0 mm | - | - | - |
| 1777690163 | 16.11° C | 62% | 1015 hPa | 0 mm | - | - | - |
| 1777689563 | 16.11° C | 64% | 1014.9 hPa | 0 mm | - | - | - |
| 1777688963 | 16.11° C | 65% | 1014.7 hPa | 0 mm | - | - | - |
| 1777688363 | 16.67° C | 66% | 1014.7 hPa | 0 mm | - | - | - |
| 1777687163 | 16.67° C | 67% | 1014.8 hPa | 0 mm | - | - | - |
| 1777684763 | 16.11° C | 69% | 1015 hPa | 0 mm | - | - | - |
| 1777681163 | 17.22° C | 66% | 1014.9 hPa | 0 mm | - | - | - |
| 1777679963 | 17.22° C | 65% | 1015 hPa | 0 mm | - | - | - |
| 1777678163 | 17.78° C | 61% | 1015.2 hPa | 0 mm | - | - | - |
| 1777676363 | 18.89° C | 60% | 1015.4 hPa | 0 mm | - | - | - |
| 1777674563 | 18.33° C | 62% | 1015.6 hPa | 0 mm | - | - | - |
| 1777673963 | 17.78° C | 62% | 1015.6 hPa | 0 mm | - | - | - |
| 1777672163 | 17.78° C | 63% | 1015.6 hPa | 0 mm | - | - | - |
| 1777669163 | 17.22° C | 65% | 1015.7 hPa | 0 mm | - | - | - |
| 1777667963 | 17.22° C | 63% | 1015.8 hPa | 0 mm | - | - | - |
| 1777665563 | 16.67° C | 66% | 1016.2 hPa | 0 mm | - | - | - |
| 1777663763 | 16.11° C | 68% | 1016.3 hPa | 0 mm | - | - | - |
| 1777663163 | 15.56° C | 70% | 1016.3 hPa | 0 mm | - | - | - |
| 1777662563 | 15.56° C | 70% | 1016.4 hPa | 0 mm | - | - | - |
| 1777661963 | 15° C | 71% | 1016.5 hPa | 0 mm | - | - | - |
| 1777660163 | 15° C | 70% | 1016.7 hPa | 0 mm | - | - | - |
| 1777659563 | 15.56° C | 69% | 1016.7 hPa | 0 mm | - | - | - |
| 1777651763 | 13.33° C | 81% | 1017.3 hPa | 0 mm | - | - | - |
* Rain latest hour (hover to see other rain measurements)
** Current wind speed in m/s (hover to see current wind gust speed)